| time (UTC) | temp C | wind direction | speed KPH | gust KPH | rain 1hr cm | rain 24hr cm | rain mn cm | humidity % | barometer mb |
| 20260505010009 | 16 | 295 | 3.2 | 6.4 | 0.00 | 0.05 | 0.00 | 69 | 1010.5 |
| 20260505005509 | 16 | 312 | 4.8 | 6.4 | 0.00 | 0.05 | 0.00 | 68 | 1010.5 |
| 20260505005013 | 16 | 328 | 3.2 | 6.4 | 0.00 | 0.05 | 0.00 | 69 | 1010.6 |
| 20260505004510 | 16 | 322 | 3.2 | 6.4 | 0.00 | 0.05 | 0.00 | 70 | 1010.7 |
| 20260505004010 | 16 | 296 | 3.2 | 3.2 | 0.00 | 0.05 | 0.00 | 71 | 1010.7 |
| 20260505003511 | 16 | 296 | 3.2 | 4.8 | 0.00 | 0.05 | 0.00 | 72 | 1010.7 |
| 20260505003013 | 16 | 282 | 6.4 | 8.0 | 0.00 | 0.05 | 0.00 | 72 | 1010.8 |
| 20260505002510 | 16 | 299 | 3.2 | 11.3 | 0.00 | 0.05 | 0.00 | 73 | 1010.9 |
| 20260505002019 | 16 | 297 | 8.0 | 11.3 | 0.00 | 0.05 | 0.00 | 73 | 1010.9 |
| 20260505001510 | 16 | 303 | 8.0 | 8.0 | 0.00 | 0.05 | 0.00 | 73 | 1010.9 |
| 20260505001013 | 16 | 282 | 6.4 | 8.0 | 0.00 | 0.05 | 0.00 | 72 | 1011.1 |
| 20260505000511 | 16 | 319 | 6.4 | 8.0 | 0.00 | 0.05 | 0.00 | 72 | 1011.3 |
| 20260505000013 | 16 | 335 | 4.8 | 6.4 | 0.00 | 0.05 | 0.00 | 71 | 1011.3 |
| 20260504235513 | 16 | 353 | 0.0 | 20.9 | 0.00 | 0.05 | 0.00 | 72 | 1011.3 |
| 20260504235016 | 16 | 356 | 3.2 | 22.5 | 0.00 | 0.05 | 0.00 | 73 | 1011.4 |
| 20260504234516 | 15 | 325 | 6.4 | 17.7 | 0.03 | 0.05 | 0.00 | 75 | 1011.3 |
| 20260504234013 | 15 | 13 | 17.7 | 19.3 | 0.03 | 0.05 | 0.00 | 76 | 1011.3 |
| 20260504233517 | 15 | 37 | 0.0 | 11.3 | 0.03 | 0.05 | 0.00 | 76 | 1011.4 |
| 20260504233010 | 15 | 80 | 8.0 | 9.7 | 0.05 | 0.05 | 0.00 | 75 | 1011.6 |
| 20260504232513 | 15 | 54 | 6.4 | 19.3 | 0.05 | 0.05 | 0.00 | 75 | 1011.8 |
| 20260504232010 | 15 | 43 | 12.9 | 12.9 | 0.05 | 0.05 | 0.00 | 75 | 1012.0 |
| 20260504231516 | 15 | 48 | 6.4 | 12.9 | 0.05 | 0.05 | 0.00 | 75 | 1012.0 |
| 20260504231013 | 16 | 70 | 11.3 | 20.9 | 0.05 | 0.05 | 0.00 | 72 | 1012.1 |
| 20260504230520 | 16 | 94 | 14.5 | 14.5 | 0.05 | 0.05 | 0.00 | 65 | 1012.2 |
| 20260504230010 | 16 | 15 | 9.7 | 17.7 | 0.05 | 0.05 | 0.00 | 68 | 1012.0 |
| 20260504225513 | 16 | 358 | 9.7 | 12.9 | 0.03 | 0.03 | 0.00 | 67 | 1012.2 |
| 20260504225010 | 16 | 37 | 9.7 | 17.7 | 0.03 | 0.03 | 0.00 | 68 | 1012.6 |
| 20260504224513 | 16 | 43 | 1.6 | 8.0 | 0.00 | 0.00 | 0.00 | 69 | 1012.9 |
| 20260504224013 | 16 | 201 | 0.0 | 6.4 | 0.00 | 0.00 | 0.00 | 68 | 1013.4 |
| 20260504223514 | 16 | 194 | 3.2 | 6.4 | 0.00 | 0.00 | 0.00 | 67 | 1013.6 |
| 20260504223010 | 17 | 172 | 3.2 | 24.1 | 0.00 | 0.00 | 0.00 | 66 | 1013.7 |
| 20260504222510 | 17 | 132 | 11.3 | 24.1 | 0.00 | 0.00 | 0.00 | 64 | 1013.7 |
| 20260504222019 | 18 | 120 | 8.0 | 11.3 | 0.00 | 0.00 | 0.00 | 57 | 1013.2 |
| 20260504221510 | 18 | 167 | 4.8 | 8.0 | 0.00 | 0.00 | 0.00 | 55 | 1012.8 |
| 20260504221010 | 18 | 195 | 8.0 | 9.7 | 0.00 | 0.00 | 0.00 | 56 | 1012.6 |
| 20260504220517 | 18 | 191 | 6.4 | 9.7 | 0.00 | 0.00 | 0.00 | 56 | 1012.5 |
| 20260504220010 | 18 | 209 | 3.2 | 9.7 | 0.00 | 0.00 | 0.00 | 56 | 1012.3 |
| 20260504215509 | 18 | 256 | 8.0 | 9.7 | 0.00 | 0.00 | 0.00 | 55 | 1012.3 |
| 20260504215015 | 18 | 261 | 6.4 | 6.4 | 0.00 | 0.00 | 0.00 | 54 | 1012.2 |
| 20260504214509 | 19 | 262 | 6.4 | 8.0 | 0.00 | 0.00 | 0.00 | 52 | 1012.2 |
| 20260504214012 | 19 | 304 | 4.8 | 8.0 | 0.00 | 0.00 | 0.00 | 51 | 1012.2 |
| 20260504213514 | 19 | 306 | 4.8 | 9.7 | 0.00 | 0.00 | 0.00 | 51 | 1012.3 |
| 20260504213009 | 19 | 325 | 3.2 | 8.0 | 0.00 | 0.00 | 0.00 | 51 | 1012.3 |
| 20260504212515 | 19 | 351 | 6.4 | 9.7 | 0.00 | 0.00 | 0.00 | 52 | 1012.3 |
| 20260504212010 | 19 | 316 | 1.6 | 8.0 | 0.00 | 0.00 | 0.00 | 51 | 1012.4 |
| 20260504211517 | 19 | 298 | 1.6 | 6.4 | 0.00 | 0.00 | 0.00 | 51 | 1012.4 |
| 20260504211012 | 19 | 318 | 3.2 | 8.0 | 0.00 | 0.00 | 0.00 | 51 | 1012.4 |
| 20260504210510 | 19 | 312 | 4.8 | 9.7 | 0.00 | 0.00 | 0.00 | 51 | 1012.5 |
| 20260504210016 | 19 | 306 | 3.2 | 6.4 | 0.00 | 0.00 | 0.00 | 51 | 1012.5 |
| 20260504205511 | 19 | 277 | 1.6 | 6.4 | 0.00 | 0.00 | 0.00 | 51 | 1012.5 |
| 20260504205013 | 20 | 287 | 4.8 | 8.0 | 0.00 | 0.00 | 0.00 | 50 | 1012.6 |
| 20260504204512 | 20 | 299 | 3.2 | 8.0 | 0.00 | 0.00 | 0.00 | 49 | 1012.6 |
| 20260504204012 | 20 | 330 | 1.6 | 8.0 | 0.00 | 0.00 | 0.00 | 49 | 1012.7 |
| 20260504203511 | 20 | 303 | 3.2 | 8.0 | 0.00 | 0.00 | 0.00 | 49 | 1012.6 |
| 20260504203013 | 20 | 314 | 3.2 | 6.4 | 0.00 | 0.00 | 0.00 | 49 | 1012.6 |
| 20260504202509 | 20 | 337 | 1.6 | 6.4 | 0.00 | 0.00 | 0.00 | 49 | 1012.6 |
| 20260504202012 | 20 | 314 | 1.6 | 4.8 | 0.00 | 0.00 | 0.00 | 49 | 1012.6 |
| 20260504201510 | 20 | 331 | 3.2 | 4.8 | 0.00 | 0.00 | 0.00 | 49 | 1012.7 |
| 20260504201016 | 20 | 345 | 3.2 | 4.8 | 0.00 | 0.00 | 0.00 | 48 | 1012.7 |
| 20260504200514 | 20 | 339 | 3.2 | 6.4 | 0.00 | 0.00 | 0.00 | 48 | 1012.7 |
| 20260504200013 | 20 | 346 | 6.4 | 9.7 | 0.00 | 0.00 | 0.00 | 48 | 1012.7 |
| 20260504195510 | 20 | 341 | 3.2 | 9.7 | 0.00 | 0.00 | 0.00 | 48 | 1012.6 |
| 20260504195010 | 20 | 329 | 3.2 | 8.0 | 0.00 | 0.00 | 0.00 | 48 | 1012.6 |
| 20260504194514 | 20 | 333 | 3.2 | 11.3 | 0.00 | 0.00 | 0.00 | 48 | 1012.6 |
| 20260504194009 | 20 | 21 | 11.3 | 11.3 | 0.00 | 0.00 | 0.00 | 48 | 1012.6 |
| 20260504193510 | 20 | 358 | 8.0 | 11.3 | 0.00 | 0.00 | 0.00 | 48 | 1012.6 |
| 20260504193013 | 20 | 340 | 8.0 | 11.3 | 0.00 | 0.00 | 0.00 | 47 | 1012.6 |
| 20260504192510 | 20 | 353 | 6.4 | 9.7 | 0.00 | 0.00 | 0.00 | 47 | 1012.6 |
| 20260504192016 | 20 | 352 | 3.2 | 9.7 | 0.00 | 0.00 | 0.00 | 47 | 1012.5 |
| 20260504191511 | 20 | 28 | 8.0 | 9.7 | 0.00 | 0.00 | 0.00 | 46 | 1012.5 |
| 20260504191010 | 20 | 28 | 3.2 | 11.3 | 0.00 | 0.00 | 0.00 | 46 | 1012.5 |
| 20260504190510 | 20 | 351 | 11.3 | 12.9 | 0.00 | 0.00 | 0.00 | 46 | 1012.4 |
| 20260504190010 | 21 | 14 | 8.0 | 9.7 | 0.00 | 0.00 | 0.00 | 46 | 1012.3 |
| 20260504185510 | 21 | 318 | 4.8 | 8.0 | 0.00 | 0.00 | 0.00 | 45 | 1012.3 |
| 20260504185010 | 21 | 356 | 4.8 | 11.3 | 0.00 | 0.00 | 0.00 | 45 | 1012.2 |
| 20260504184511 | 21 | 347 | 4.8 | 6.4 | 0.00 | 0.00 | 0.00 | 44 | 1012.1 |
| 20260504184010 | 21 | 343 | 3.2 | 6.4 | 0.00 | 0.00 | 0.00 | 44 | 1012.2 |
| 20260504183510 | 21 | 342 | 3.2 | 6.4 | 0.00 | 0.00 | 0.00 | 44 | 1012.2 |
| 20260504183013 | 21 | 356 | 1.6 | 6.4 | 0.00 | 0.00 | 0.00 | 43 | 1012.2 |
| 20260504182516 | 21 | 345 | 4.8 | 8.0 | 0.00 | 0.00 | 0.00 | 43 | 1012.1 |
| 20260504182013 | 21 | 306 | 4.8 | 6.4 | 0.00 | 0.00 | 0.00 | 43 | 1012.1 |
| 20260504181514 | 21 | 325 | 0.0 | 8.0 | 0.00 | 0.00 | 0.00 | 43 | 1012.1 |
| 20260504181010 | 21 | 301 | 1.6 | 8.0 | 0.00 | 0.00 | 0.00 | 44 | 1012.1 |
| 20260504180509 | 21 | 342 | 1.6 | 8.0 | 0.00 | 0.00 | 0.00 | 44 | 1012.0 |
| 20260504180009 | 21 | 343 | 3.2 | 8.0 | 0.00 | 0.00 | 0.00 | 44 | 1012.1 |
| 20260504175512 | 21 | 314 | 3.2 | 8.0 | 0.00 | 0.00 | 0.00 | 43 | 1012.1 |
| 20260504175018 | 21 | 40 | 1.6 | 9.7 | 0.00 | 0.00 | 0.00 | 44 | 1012.1 |
| 20260504174511 | 21 | 326 | 8.0 | 9.7 | 0.00 | 0.00 | 0.00 | 44 | 1012.0 |
| 20260504174009 | 21 | 346 | 3.2 | 8.0 | 0.00 | 0.00 | 0.00 | 44 | 1012.0 |
| 20260504173509 | 21 | 343 | 4.8 | 6.4 | 0.00 | 0.00 | 0.00 | 44 | 1012.0 |
| 20260504173012 | 21 | 326 | 1.6 | 6.4 | 0.00 | 0.00 | 0.00 | 44 | 1012.0 |
| 20260504172509 | 21 | 31 | 1.6 | 4.8 | 0.00 | 0.00 | 0.00 | 44 | 1012.1 |
| 20260504172010 | 21 | 282 | 1.6 | 9.7 | 0.00 | 0.00 | 0.00 | 44 | 1012.0 |
| 20260504171511 | 21 | 18 | 0.0 | 3.2 | 0.00 | 0.00 | 0.00 | 44 | 1012.1 |
| 20260504171009 | 21 | 335 | 1.6 | 8.0 | 0.00 | 0.00 | 0.00 | 44 | 1012.0 |
| 20260504170509 | 21 | 351 | 3.2 | 12.9 | 0.00 | 0.00 | 0.00 | 44 | 1012.1 |
| 20260504151016 | 23 | 352 | 1.6 | 8.0 | 0.00 | 0.00 | 0.00 | 38 | 1012.4 |
| 20260504150509 | 23 | 282 | 1.6 | 6.4 | 0.00 | 0.00 | 0.00 | 38 | 1012.5 |
| 20260504141013 | 23 | 277 | 1.6 | 9.7 | 0.00 | 0.00 | 0.00 | 39 | 1012.8 |
| 20260504140513 | 23 | 112 | 8.0 | 8.0 | 0.00 | 0.00 | 0.00 | 39 | 1012.8 |
| 20260504130509 | 22 | 325 | 1.6 | 9.7 | 0.00 | 0.00 | 0.00 | 41 | 1013.1 |
| 20260504110511 | 20 | 297 | 1.6 | 6.4 | 0.00 | 0.00 | 0.00 | 45 | 1014.0 |
| 20260504100514 | 19 | 287 | 3.2 | 9.7 | 0.00 | 0.00 | 0.00 | 46 | 1014.5 |
| 20260504081513 | 17 | 282 | 4.8 | 12.9 | 0.00 | 0.00 | 0.00 | 51 | 1014.2 |
| 20260504081018 | 17 | 282 | 9.7 | 12.9 | 0.00 | 0.00 | 0.00 | 52 | 1014.2 |
| 20260504080517 | 17 | 277 | 6.4 | 9.7 | 0.00 | 0.00 | 0.00 | 53 | 1014.3 |
| 20260504050511 | 12 | 211 | 1.6 | 6.4 | 0.00 | 0.00 | 0.00 | 66 | 1013.4 |
| 20260504050009 | 12 | 208 | 3.2 | 6.4 | 0.00 | 0.00 | 0.00 | 65 | 1013.3 |
| 20260504045515 | 12 | 228 | 4.8 | 8.0 | 0.00 | 0.00 | 0.00 | 65 | 1013.3 |
| 20260504045009 | 12 | 270 | 3.2 | 4.8 | 0.00 | 0.00 | 0.00 | 64 | 1013.3 |
| 20260504044509 | 12 | 270 | 1.6 | 3.2 | 0.00 | 0.00 | 0.00 | 65 | 1013.4 |
| 20260504044009 | 12 | 270 | 0.0 | 4.8 | 0.00 | 0.00 | 0.00 | 65 | 1013.5 |
| 20260504043511 | 12 | 272 | 3.2 | 4.8 | 0.00 | 0.00 | 0.00 | 65 | 1013.6 |
| 20260504043012 | 12 | 272 | 3.2 | 4.8 | 0.00 | 0.00 | 0.00 | 65 | 1013.7 |
| 20260504042509 | 12 | 282 | 4.8 | 4.8 | 0.00 | 0.00 | 0.00 | 66 | 1013.7 |
| 20260504042009 | 12 | 245 | 1.6 | 4.8 | 0.00 | 0.00 | 0.00 | 66 | 1013.8 |
| 20260504041512 | 12 | 245 | 3.2 | 3.2 | 0.00 | 0.00 | 0.00 | 66 | 1013.8 |
| 20260504041009 | 12 | 245 | 1.6 | 3.2 | 0.00 | 0.00 | 0.00 | 66 | 1013.9 |
| 20260504040514 | 12 | 244 | 1.6 | 3.2 | 0.00 | 0.00 | 0.00 | 66 | 1013.9 |
| 20260504040012 | 12 | 238 | 0.0 | 3.2 | 0.00 | 0.00 | 0.00 | 66 | 1013.9 |
| 20260504035509 | 12 | 238 | 1.6 | 3.2 | 0.00 | 0.00 | 0.00 | 66 | 1013.9 |
| 20260504035018 | 12 | 239 | 3.2 | 4.8 | 0.00 | 0.00 | 0.00 | 66 | 1013.9 |
| 20260504034512 | 12 | 235 | 3.2 | 6.4 | 0.00 | 0.00 | 0.00 | 66 | 1014.0 |
| 20260504034016 | 12 | 247 | 4.8 | 8.0 | 0.00 | 0.00 | 0.00 | 66 | 1013.8 |
| 20260504033511 | 12 | 247 | 4.8 | 8.0 | 0.00 | 0.00 | 0.00 | 65 | 1013.8 |
| 20260504033009 | 12 | 244 | 4.8 | 8.0 | 0.00 | 0.00 | 0.00 | 65 | 1013.7 |
| 20260504032515 | 13 | 263 | 3.2 | 6.4 | 0.00 | 0.00 | 0.00 | 63 | 1013.7 |
| 20260504032012 | 13 | 250 | 1.6 | 4.8 | 0.00 | 0.00 | 0.00 | 62 | 1013.6 |
| 20260504031510 | 13 | 252 | 3.2 | 4.8 | 0.00 | 0.00 | 0.00 | 62 | 1013.7 |
| 20260504031009 | 13 | 25 | 1.6 | 3.2 | 0.00 | 0.00 | 0.00 | 62 | 1013.7 |
| 20260504030514 | 13 | 25 | 0.0 | 3.2 | 0.00 | 0.00 | 0.00 | 61 | 1013.8 |
| 20260504030012 | 13 | 25 | 1.6 | 3.2 | 0.00 | 0.00 | 0.00 | 61 | 1013.9 |
| 20260504025509 | 13 | 25 | 0.0 | 0.0 | 0.00 | 0.00 | 0.00 | 60 | 1013.9 |
| 20260504025013 | 13 | 25 | 0.0 | 1.6 | 0.00 | 0.00 | 0.00 | 60 | 1013.9 |
| 20260504024512 | 13 | 25 | 1.6 | 6.4 | 0.00 | 0.00 | 0.00 | 60 | 1014.0 |
| 20260504024012 | 13 | 25 | 3.2 | 6.4 | 0.00 | 0.00 | 0.00 | 60 | 1013.9 |
| 20260504023511 | 13 | 25 | 1.6 | 6.4 | 0.00 | 0.00 | 0.00 | 60 | 1013.8 |
| 20260504023009 | 13 | 353 | 1.6 | 3.2 | 0.00 | 0.00 | 0.00 | 60 | 1013.8 |
| 20260504022513 | 13 | 354 | 1.6 | 1.6 | 0.00 | 0.00 | 0.00 | 60 | 1013.9 |
| 20260504022010 | 13 | 354 | 0.0 | 3.2 | 0.00 | 0.00 | 0.00 | 60 | 1013.9 |
| 20260504021515 | 13 | 354 | 1.6 | 3.2 | 0.00 | 0.00 | 0.00 | 60 | 1013.9 |
| 20260504021012 | 13 | 354 | 1.6 | 3.2 | 0.00 | 0.00 | 0.00 | 60 | 1013.8 |
| 20260504020511 | 13 | 354 | 1.6 | 3.2 | 0.00 | 0.00 | 0.00 | 59 | 1013.8 |
| 20260504020009 | 13 | 354 | 1.6 | 4.8 | 0.00 | 0.00 | 0.00 | 59 | 1013.8 |
| 20260504015512 | 14 | 354 | 0.0 | 3.2 | 0.00 | 0.00 | 0.00 | 59 | 1013.8 |
| 20260504015012 | 14 | 354 | 1.6 | 3.2 | 0.00 | 0.00 | 0.00 | 59 | 1013.8 |
| 20260504014509 | 14 | 12 | 3.2 | 6.4 | 0.00 | 0.00 | 0.00 | 59 | 1013.7 |
| 20260504014009 | 14 | 351 | 3.2 | 8.0 | 0.00 | 0.00 | 0.00 | 58 | 1013.7 |
| 20260504013511 | 14 | 351 | 6.4 | 9.7 | 0.00 | 0.00 | 0.00 | 58 | 1013.7 |
| 20260504013012 | 15 | 347 | 4.8 | 6.4 | 0.00 | 0.00 | 0.00 | 57 | 1013.8 |
| 20260504012515 | 15 | 325 | 3.2 | 6.4 | 0.00 | 0.00 | 0.00 | 56 | 1013.8 |
| 20260504012009 | 15 | 337 | 3.2 | 8.0 | 0.00 | 0.00 | 0.00 | 56 | 1013.9 |
| 20260504011510 | 15 | 332 | 6.4 | 8.0 | 0.00 | 0.00 | 0.00 | 55 | 1013.9 |
| 20260504011012 | 15 | 307 | 6.4 | 9.7 | 0.00 | 0.00 | 0.00 | 55 | 1013.8 |
| 20260504010511 | 15 | 306 | 6.4 | 6.4 | 0.00 | 0.00 | 0.00 | 55 | 1013.8 |